Time,TemperatureF,DewpointF,PressureIn,WindDirection,WindDirectionDegrees,WindSpeedMPH,WindSpeedGustMPH,Humidity,HourlyPrecipIn,Conditions,Clouds,dailyrainin,SoftwareType,DateUTC
2013-08-02 00:04:00,84.9,70.9,29.90,SE,124,6.0,13.0,63,0.00,,,0.00,meteohub,2013-08-02 05:04:00,
2013-08-02 00:10:00,84.7,71.2,29.90,SSE,162,6.0,11.0,64,0.00,,,0.00,meteohub,2013-08-02 05:10:00,
2013-08-02 00:16:00,84.6,71.1,29.90,SSE,148,5.0,10.0,64,0.00,,,0.00,meteohub,2013-08-02 05:16:00,
2013-08-02 00:22:00,84.4,70.9,29.90,SE,144,7.0,10.0,64,0.00,,,0.00,meteohub,2013-08-02 05:22:00,
2013-08-02 00:27:00,84.2,70.7,29.90,SSE,167,6.0,10.0,64,0.00,,,0.00,meteohub,2013-08-02 05:27:00,
2013-08-02 00:32:00,84.0,70.5,29.90,SSE,148,3.0,9.0,64,0.00,,,0.00,meteohub,2013-08-02 05:32:00,
2013-08-02 00:37:00,83.8,70.3,29.90,SSE,160,0.0,9.0,64,0.00,,,0.00,meteohub,2013-08-02 05:37:00,
2013-08-02 00:45:00,83.7,70.2,29.91,SSE,162,2.0,9.0,64,0.00,,,0.00,meteohub,2013-08-02 05:45:00,
2013-08-02 00:50:00,83.7,70.7,29.91,South,177,4.0,6.0,65,0.00,,,0.00,meteohub,2013-08-02 05:50:00,
2013-08-02 00:58:00,83.3,70.3,29.91,SSE,151,3.0,7.0,65,0.00,,,0.00,meteohub,2013-08-02 05:58:00,
2013-08-02 01:07:00,82.9,70.0,29.91,SSE,161,3.0,7.0,65,0.00,,,0.00,meteohub,2013-08-02 06:07:00,
2013-08-02 01:12:00,82.9,70.0,29.91,SSE,155,5.0,7.0,65,0.00,,,0.00,meteohub,2013-08-02 06:12:00,
2013-08-02 01:21:00,82.6,69.6,29.91,SSE,147,7.0,7.0,65,0.00,,,0.00,meteohub,2013-08-02 06:21:00,
2013-08-02 01:27:00,82.6,69.6,29.91,SE,146,6.0,9.0,65,0.00,,,0.00,meteohub,2013-08-02 06:27:00,
2013-08-02 01:32:00,82.6,69.6,29.91,SE,142,2.0,9.0,65,0.00,,,0.00,meteohub,2013-08-02 06:32:00,
2013-08-02 01:37:00,82.6,69.6,29.91,SSE,149,2.0,9.0,65,0.00,,,0.00,meteohub,2013-08-02 06:37:00,
2013-08-02 01:42:00,82.4,69.4,29.90,SE,133,3.0,7.0,65,0.00,,,0.00,meteohub,2013-08-02 06:42:00,
2013-08-02 01:47:00,82.4,69.4,29.90,SE,135,3.0,8.0,65,0.00,,,0.00,meteohub,2013-08-02 06:47:00,
2013-08-02 01:52:00,82.2,69.3,29.90,SSE,155,3.0,8.0,65,0.00,,,0.00,meteohub,2013-08-02 06:52:00,
2013-08-02 01:57:00,82.2,69.3,29.90,SSE,159,6.0,7.0,65,0.00,,,0.00,meteohub,2013-08-02 06:57:00,
2013-08-02 02:02:00,82.0,69.1,29.90,SSE,148,2.0,7.0,65,0.00,,,0.00,meteohub,2013-08-02 07:02:00,
2013-08-02 02:10:00,82.0,69.1,29.90,SE,141,7.0,7.0,65,0.00,,,0.00,meteohub,2013-08-02 07:10:00,
2013-08-02 02:16:00,81.9,68.9,29.90,SSE,150,1.0,7.0,65,0.00,,,0.00,meteohub,2013-08-02 07:16:00,
2013-08-02 02:23:00,81.7,69.3,29.90,SE,144,6.0,7.0,66,0.00,,,0.00,meteohub,2013-08-02 07:23:00,
2013-08-02 02:29:00,81.7,69.3,29.90,SE,131,5.0,7.0,66,0.00,,,0.00,meteohub,2013-08-02 07:29:00,
2013-08-02 02:35:00,81.5,69.1,29.90,SE,140,6.0,9.0,66,0.00,,,0.00,meteohub,2013-08-02 07:35:00,
2013-08-02 02:42:00,81.3,68.9,29.90,SSE,156,3.0,9.0,66,0.00,,,0.00,meteohub,2013-08-02 07:42:00,
2013-08-02 02:47:00,81.3,68.9,29.89,SSE,153,4.0,9.0,66,0.00,,,0.00,meteohub,2013-08-02 07:47:00,
2013-08-02 02:55:00,81.1,69.1,29.89,SSE,167,1.0,6.0,67,0.00,,,0.00,meteohub,2013-08-02 07:55:00,
2013-08-02 03:02:00,81.0,68.9,29.89,South,173,2.0,6.0,67,0.00,,,0.00,meteohub,2013-08-02 08:02:00,
2013-08-02 03:10:00,80.8,68.7,29.89,SSE,163,2.0,8.0,67,0.00,,,0.00,meteohub,2013-08-02 08:10:00,
2013-08-02 03:17:00,80.6,69.1,29.89,SSE,154,2.0,8.0,68,0.00,,,0.00,meteohub,2013-08-02 08:17:00,
2013-08-02 03:22:00,80.4,68.9,29.88,SSE,150,3.0,7.0,68,0.00,,,0.00,meteohub,2013-08-02 08:22:00,
2013-08-02 03:28:00,80.2,69.1,29.89,SSE,149,4.0,7.0,69,0.00,,,0.00,meteohub,2013-08-02 08:28:00,
2013-08-02 03:34:00,80.1,68.9,29.88,SSE,149,1.0,7.0,69,0.00,,,0.00,meteohub,2013-08-02 08:34:00,
2013-08-02 03:39:00,80.1,68.9,29.88,SSE,161,1.0,7.0,69,0.00,,,0.00,meteohub,2013-08-02 08:39:00,
2013-08-02 03:45:00,80.1,68.9,29.88,SSE,165,3.0,7.0,69,0.00,,,0.00,meteohub,2013-08-02 08:45:00,
2013-08-02 03:50:00,80.1,69.4,29.88,SSE,156,4.0,6.0,70,0.00,,,0.00,meteohub,2013-08-02 08:50:00,
2013-08-02 03:57:00,79.9,69.3,29.88,SSE,155,4.0,6.0,70,0.00,,,0.00,meteohub,2013-08-02 08:57:00,
2013-08-02 04:02:00,79.9,69.3,29.88,SSE,162,5.0,6.0,70,0.00,,,0.00,meteohub,2013-08-02 09:02:00,
2013-08-02 04:11:00,79.5,69.3,29.88,SSE,157,5.0,6.0,71,0.00,,,0.00,meteohub,2013-08-02 09:11:00,
2013-08-02 04:16:00,79.5,69.3,29.88,SSE,165,1.0,7.0,71,0.00,,,0.00,meteohub,2013-08-02 09:16:00,
2013-08-02 04:22:00,79.5,69.3,29.88,SSE,158,3.0,7.0,71,0.00,,,0.00,meteohub,2013-08-02 09:22:00,
2013-08-02 04:27:00,79.3,69.1,29.88,SSE,159,2.0,7.0,71,0.00,,,0.00,meteohub,2013-08-02 09:27:00,
2013-08-02 04:33:00,79.3,69.1,29.88,SSE,160,2.0,7.0,71,0.00,,,0.00,meteohub,2013-08-02 09:33:00,
2013-08-02 04:39:00,79.2,69.3,29.88,SSE,155,4.0,7.0,72,0.00,,,0.00,meteohub,2013-08-02 09:39:00,
2013-08-02 04:47:00,79.0,69.3,29.88,SSE,153,4.0,6.0,72,0.00,,,0.00,meteohub,2013-08-02 09:47:00,
2013-08-02 04:52:00,79.0,69.6,29.88,SSE,155,0.0,6.0,73,0.00,,,0.00,meteohub,2013-08-02 09:52:00,
2013-08-02 04:57:00,79.0,69.6,29.88,SSE,155,2.0,5.0,73,0.00,,,0.00,meteohub,2013-08-02 09:57:00,
2013-08-02 05:03:00,79.0,69.6,29.88,SSE,158,5.0,5.0,73,0.00,,,0.00,meteohub,2013-08-02 10:03:00,
2013-08-02 05:08:00,79.0,70.0,29.88,SSE,165,1.0,5.0,74,0.00,,,0.00,meteohub,2013-08-02 10:08:00,
2013-08-02 05:14:00,79.0,70.0,29.88,SSE,165,1.0,6.0,74,0.00,,,0.00,meteohub,2013-08-02 10:14:00,
2013-08-02 05:26:00,79.0,70.0,29.89,SSE,167,3.0,6.0,74,0.00,,,0.00,meteohub,2013-08-02 10:26:00,
2013-08-02 05:31:00,79.0,70.3,29.89,SSE,167,3.0,6.0,75,0.00,,,0.00,meteohub,2013-08-02 10:31:00,
2013-08-02 05:37:00,78.8,70.2,29.89,SSE,167,0.0,5.0,75,0.00,,,0.00,meteohub,2013-08-02 10:37:00,
2013-08-02 05:46:00,78.8,70.2,29.89,SSE,166,2.0,5.0,75,0.00,,,0.00,meteohub,2013-08-02 10:46:00,
2013-08-02 05:51:00,78.6,70.3,29.89,SSE,158,2.0,4.0,76,0.00,,,0.00,meteohub,2013-08-02 10:51:00,
2013-08-02 05:57:00,78.6,70.3,29.89,SSE,159,1.0,5.0,76,0.00,,,0.00,meteohub,2013-08-02 10:57:00,
2013-08-02 06:04:00,78.6,70.3,29.89,SSE,159,3.0,5.0,76,0.00,,,0.00,meteohub,2013-08-02 11:04:00,
2013-08-02 06:11:00,78.6,70.3,29.90,SSE,159,1.0,4.0,76,0.00,,,0.00,meteohub,2013-08-02 11:11:00,
2013-08-02 06:17:00,78.6,70.3,29.90,SSE,159,0.0,4.0,76,0.00,,,0.00,meteohub,2013-08-02 11:17:00,
2013-08-02 06:25:00,78.6,70.9,29.90,SSE,159,0.0,4.0,77,0.00,,,0.00,meteohub,2013-08-02 11:25:00,
2013-08-02 06:30:00,78.6,70.9,29.90,SSE,160,0.0,4.0,77,0.00,,,0.00,meteohub,2013-08-02 11:30:00,
2013-08-02 06:37:00,78.4,70.7,29.89,SSE,160,3.0,4.0,77,0.00,,,0.00,meteohub,2013-08-02 11:37:00,
2013-08-02 06:47:00,78.4,70.7,29.89,South,173,2.0,6.0,77,0.00,,,0.00,meteohub,2013-08-02 11:47:00,
2013-08-02 06:52:00,78.4,70.7,29.89,South,175,2.0,6.0,77,0.00,,,0.00,meteohub,2013-08-02 11:52:00,
2013-08-02 06:57:00,78.4,71.1,29.89,South,175,2.0,5.0,78,0.00,,,0.00,meteohub,2013-08-02 11:57:00,
2013-08-02 07:03:00,78.4,71.1,29.89,South,181,2.0,7.0,78,0.00,,,0.00,meteohub,2013-08-02 12:03:00,
2013-08-02 07:09:00,78.4,71.1,29.90,South,180,2.0,7.0,78,0.00,,,0.00,meteohub,2013-08-02 12:09:00,
2013-08-02 07:15:00,78.3,70.9,29.90,South,186,1.0,6.0,78,0.00,,,0.00,meteohub,2013-08-02 12:15:00,
2013-08-02 07:20:00,78.4,71.1,29.90,South,186,2.0,6.0,78,0.00,,,0.00,meteohub,2013-08-02 12:20:00,
2013-08-02 07:28:00,78.4,71.1,29.90,South,186,0.0,5.0,78,0.00,,,0.00,meteohub,2013-08-02 12:28:00,
2013-08-02 07:33:00,78.4,71.1,29.90,South,186,1.0,4.0,78,0.00,,,0.00,meteohub,2013-08-02 12:33:00,
2013-08-02 07:44:00,79.0,71.1,29.90,South,186,3.0,4.0,77,0.00,,,0.00,meteohub,2013-08-02 12:44:00,
2013-08-02 07:50:00,79.3,71.1,29.90,South,186,1.0,4.0,76,0.00,,,0.00,meteohub,2013-08-02 12:50:00,
2013-08-02 07:56:00,79.9,71.6,29.90,South,186,2.0,4.0,76,0.00,,,0.00,meteohub,2013-08-02 12:56:00,
2013-08-02 08:02:00,80.1,71.4,29.91,South,186,3.0,4.0,75,0.00,,,0.00,meteohub,2013-08-02 13:02:00,
2013-08-02 08:09:00,80.2,71.6,29.91,South,186,4.0,5.0,75,0.00,,,0.00,meteohub,2013-08-02 13:09:00,
2013-08-02 08:14:00,80.4,71.4,29.91,SSW,205,3.0,5.0,74,0.00,,,0.00,meteohub,2013-08-02 13:14:00,
2013-08-02 08:22:00,81.1,71.6,29.91,SSW,211,3.0,6.0,73,0.00,,,0.00,meteohub,2013-08-02 13:22:00,
2013-08-02 08:27:00,81.7,71.4,29.91,SSW,196,3.0,6.0,71,0.00,,,0.00,meteohub,2013-08-02 13:27:00,
2013-08-02 08:32:00,82.2,71.4,29.91,South,190,3.0,9.0,70,0.00,,,0.00,meteohub,2013-08-02 13:32:00,
2013-08-02 08:39:00,82.8,71.6,29.91,SSW,201,3.0,9.0,69,0.00,,,0.00,meteohub,2013-08-02 13:39:00,
2013-08-02 08:46:00,83.3,71.6,29.91,SSW,207,2.0,8.0,68,0.00,,,0.00,meteohub,2013-08-02 13:46:00,
2013-08-02 08:51:00,83.8,71.8,29.91,SW,218,5.0,9.0,67,0.00,,,0.00,meteohub,2013-08-02 13:51:00,
2013-08-02 08:58:00,84.2,71.6,29.91,SW,230,8.0,9.0,66,0.00,,,0.00,meteohub,2013-08-02 13:58:00,
2013-08-02 09:07:00,84.6,72.0,29.91,SSW,199,3.0,10.0,66,0.00,,,0.00,meteohub,2013-08-02 14:07:00,
2013-08-02 09:13:00,84.9,71.4,29.91,SSW,192,7.0,9.0,64,0.00,,,0.00,meteohub,2013-08-02 14:13:00,
2013-08-02 09:20:00,85.5,72.0,29.91,SW,217,2.0,10.0,64,0.00,,,0.00,meteohub,2013-08-02 14:20:00,
2013-08-02 09:29:00,86.2,72.1,29.91,SW,233,4.0,10.0,63,0.00,,,0.00,meteohub,2013-08-02 14:29:00,
2013-08-02 09:36:00,86.7,71.6,29.91,SSW,205,4.0,9.0,61,0.00,,,0.00,meteohub,2013-08-02 14:36:00,
2013-08-02 09:45:00,87.4,71.8,29.91,SSW,205,3.0,9.0,60,0.00,,,0.00,meteohub,2013-08-02 14:45:00,
2013-08-02 09:51:00,88.2,72.0,29.92,SSW,199,2.0,9.0,59,0.00,,,0.00,meteohub,2013-08-02 14:51:00,
2013-08-02 09:58:00,88.9,72.1,29.92,SW,234,7.0,9.0,58,0.00,,,0.00,meteohub,2013-08-02 14:58:00,
2013-08-02 10:06:00,89.2,72.0,29.92,SW,221,8.0,11.0,57,0.00,,,0.00,meteohub,2013-08-02 15:06:00,
2013-08-02 10:12:00,89.4,71.6,29.92,SW,223,5.0,11.0,56,0.00,,,0.00,meteohub,2013-08-02 15:12:00,
2013-08-02 10:17:00,89.8,72.0,29.91,South,188,7.0,11.0,56,0.00,,,0.00,meteohub,2013-08-02 15:17:00,
2013-08-02 10:22:00,90.0,72.1,29.91,WSW,254,7.0,11.0,56,0.00,,,0.00,meteohub,2013-08-02 15:22:00,
2013-08-02 10:29:00,90.7,71.8,29.91,West,281,5.0,13.0,54,0.00,,,0.00,meteohub,2013-08-02 15:29:00,
2013-08-02 10:35:00,91.2,71.6,29.91,SW,234,4.0,13.0,53,0.00,,,0.00,meteohub,2013-08-02 15:35:00,
2013-08-02 10:42:00,91.6,72.0,29.91,WSW,242,6.0,13.0,53,0.00,,,0.00,meteohub,2013-08-02 15:42:00,
2013-08-02 10:47:00,91.9,71.8,29.91,WSW,247,13.0,13.0,52,0.00,,,0.00,meteohub,2013-08-02 15:47:00,
2013-08-02 10:52:00,92.1,71.4,29.91,West,274,7.0,13.0,51,0.00,,,0.00,meteohub,2013-08-02 15:52:00,
2013-08-02 10:57:00,92.1,71.4,29.91,WSW,251,10.0,14.0,51,0.00,,,0.00,meteohub,2013-08-02 15:57:00,
2013-08-02 11:05:00,92.5,71.8,29.91,West,265,11.0,16.0,51,0.00,,,0.00,meteohub,2013-08-02 16:05:00,
2013-08-02 11:12:00,93.7,72.3,29.91,WSW,258,4.0,16.0,50,0.00,,,0.00,meteohub,2013-08-02 16:12:00,
2013-08-02 11:17:00,93.9,71.2,29.92,SW,234,9.0,12.0,48,0.00,,,0.00,meteohub,2013-08-02 16:17:00,
2013-08-02 11:25:00,94.1,71.4,29.92,WSW,243,3.0,15.0,48,0.00,,,0.00,meteohub,2013-08-02 16:25:00,
2013-08-02 11:32:00,94.8,71.4,29.92,SW,232,8.0,15.0,47,0.00,,,0.00,meteohub,2013-08-02 16:32:00,
2013-08-02 11:39:00,94.8,70.9,29.92,SW,235,3.0,15.0,46,0.00,,,0.00,meteohub,2013-08-02 16:39:00,
2013-08-02 11:48:00,95.5,70.9,29.93,SW,223,4.0,14.0,45,0.00,,,0.00,meteohub,2013-08-02 16:48:00,
2013-08-02 11:55:00,96.3,70.9,29.93,SSW,211,9.0,12.0,44,0.00,,,0.00,meteohub,2013-08-02 16:55:00,
2013-08-02 12:01:00,96.3,70.2,29.93,SW,227,6.0,12.0,43,0.00,,,0.00,meteohub,2013-08-02 17:01:00,
2013-08-02 12:06:00,96.6,70.5,29.93,WSW,252,5.0,11.0,43,0.00,,,0.00,meteohub,2013-08-02 17:06:00,
2013-08-02 12:12:00,97.2,69.4,29.93,SW,225,4.0,14.0,41,0.00,,,0.00,meteohub,2013-08-02 17:12:00,
2013-08-02 12:17:00,97.2,70.2,29.92,SW,215,4.0,16.0,42,0.00,,,0.00,meteohub,2013-08-02 17:17:00,
2013-08-02 12:22:00,97.3,69.6,29.92,WSW,251,4.0,16.0,41,0.00,,,0.00,meteohub,2013-08-02 17:22:00,
2013-08-02 12:32:00,97.7,70.0,29.92,SSW,192,7.0,14.0,41,0.00,,,0.00,meteohub,2013-08-02 17:32:00,
2013-08-02 12:36:00,98.2,69.8,29.92,SSW,202,2.0,12.0,40,0.00,,,0.00,meteohub,2013-08-02 17:36:00,
2013-08-02 12:44:00,98.4,70.0,29.91,SSW,206,10.0,12.0,40,0.00,,,0.00,meteohub,2013-08-02 17:44:00,
2013-08-02 12:49:00,98.4,70.0,29.91,SW,229,9.0,13.0,40,0.00,,,0.00,meteohub,2013-08-02 17:49:00,
2013-08-02 12:55:00,98.2,69.8,29.91,SW,233,4.0,15.0,40,0.00,,,0.00,meteohub,2013-08-02 17:55:00,
2013-08-02 13:02:00,99.0,69.6,29.91,SSW,194,6.0,15.0,39,0.00,,,0.00,meteohub,2013-08-02 18:02:00,
2013-08-02 13:08:00,98.4,70.0,29.91,WSW,254,2.0,15.0,40,0.00,,,0.00,meteohub,2013-08-02 18:08:00,
2013-08-02 13:16:00,98.1,69.6,29.90,SW,236,6.0,14.0,40,0.00,,,0.00,meteohub,2013-08-02 18:16:00,
2013-08-02 13:21:00,98.2,69.8,29.90,WSW,238,3.0,11.0,40,0.00,,,0.00,meteohub,2013-08-02 18:21:00,
2013-08-02 13:27:00,98.4,70.0,29.90,SW,230,11.0,12.0,40,0.00,,,0.00,meteohub,2013-08-02 18:27:00,
2013-08-02 13:32:00,98.4,69.3,29.90,WNW,287,6.0,12.0,39,0.00,,,0.00,meteohub,2013-08-02 18:32:00,
2013-08-02 13:41:00,99.0,70.3,29.89,SW,215,7.0,13.0,40,0.00,,,0.00,meteohub,2013-08-02 18:41:00,
2013-08-02 13:46:00,99.1,69.8,29.89,SSW,211,6.0,15.0,39,0.00,,,0.00,meteohub,2013-08-02 18:46:00,
2013-08-02 13:52:00,99.1,69.8,29.89,SW,236,9.0,15.0,39,0.00,,,0.00,meteohub,2013-08-02 18:52:00,
2013-08-02 13:57:00,99.3,70.0,29.89,SSW,205,4.0,15.0,39,0.00,,,0.00,meteohub,2013-08-02 18:57:00,
2013-08-02 14:02:00,99.7,70.3,29.88,SSE,164,4.0,13.0,39,0.00,,,0.00,meteohub,2013-08-02 19:02:00,
2013-08-02 14:07:00,99.9,69.6,29.88,SSW,193,7.0,13.0,38,0.00,,,0.00,meteohub,2013-08-02 19:07:00,
2013-08-02 14:13:00,99.9,68.9,29.88,SSE,153,9.0,12.0,37,0.00,,,0.00,meteohub,2013-08-02 19:13:00,
2013-08-02 14:18:00,99.1,69.8,29.88,South,186,9.0,14.0,39,0.00,,,0.00,meteohub,2013-08-02 19:18:00,
2013-08-02 14:25:00,99.7,69.6,29.88,South,180,2.0,14.0,38,0.00,,,0.00,meteohub,2013-08-02 19:25:00,
2013-08-02 14:31:00,100.2,70.0,29.88,SE,129,7.0,14.0,38,0.00,,,0.00,meteohub,2013-08-02 19:31:00,
2013-08-02 14:38:00,100.0,69.1,29.87,WSW,251,9.0,12.0,37,0.00,,,0.00,meteohub,2013-08-02 19:38:00,
2013-08-02 14:45:00,100.0,68.4,29.87,SSE,148,7.0,15.0,36,0.00,,,0.00,meteohub,2013-08-02 19:45:00,
2013-08-02 14:50:00,100.0,67.5,29.87,South,177,3.0,15.0,35,0.00,,,0.00,meteohub,2013-08-02 19:50:00,
2013-08-02 14:57:00,100.2,68.4,29.87,South,180,4.0,17.0,36,0.00,,,0.00,meteohub,2013-08-02 19:57:00,
2013-08-02 15:02:00,100.2,67.6,29.87,SSW,202,10.0,17.0,35,0.00,,,0.00,meteohub,2013-08-02 20:02:00,
2013-08-02 15:08:00,100.0,68.4,29.86,WSW,245,8.0,17.0,36,0.00,,,0.00,meteohub,2013-08-02 20:08:00,
2013-08-02 15:17:00,100.0,67.5,29.86,SW,223,2.0,17.0,35,0.00,,,0.00,meteohub,2013-08-02 20:17:00,
2013-08-02 15:23:00,100.6,68.7,29.86,SSW,197,5.0,12.0,36,0.00,,,0.00,meteohub,2013-08-02 20:23:00,
2013-08-02 15:32:00,101.1,68.4,29.86,SW,225,7.0,10.0,35,0.00,,,0.00,meteohub,2013-08-02 20:32:00,
2013-08-02 15:37:00,101.5,67.8,29.86,South,186,4.0,16.0,34,0.00,,,0.00,meteohub,2013-08-02 20:37:00,
2013-08-02 15:42:00,101.5,67.8,29.85,South,177,3.0,16.0,34,0.00,,,0.00,meteohub,2013-08-02 20:42:00,
2013-08-02 15:48:00,100.8,68.2,29.85,SW,230,9.0,16.0,35,0.00,,,0.00,meteohub,2013-08-02 20:48:00,
2013-08-02 15:54:00,100.9,66.6,29.85,South,175,6.0,16.0,33,0.00,,,0.00,meteohub,2013-08-02 20:54:00,
2013-08-02 16:00:00,100.4,67.8,29.85,SSE,167,6.0,15.0,35,0.00,,,0.00,meteohub,2013-08-02 21:00:00,
2013-08-02 16:07:00,100.4,67.8,29.85,SSE,163,4.0,15.0,35,0.00,,,0.00,meteohub,2013-08-02 21:07:00,
2013-08-02 16:12:00,100.9,68.2,29.85,SSE,150,4.0,15.0,35,0.00,,,0.00,meteohub,2013-08-02 21:12:00,
2013-08-02 16:17:00,101.1,68.4,29.85,South,188,3.0,10.0,35,0.00,,,0.00,meteohub,2013-08-02 21:17:00,
2013-08-02 16:26:00,101.1,67.6,29.84,SSW,205,9.0,15.0,34,0.00,,,0.00,meteohub,2013-08-02 21:26:00,
2013-08-02 16:32:00,101.1,66.7,29.85,SW,215,7.0,12.0,33,0.00,,,0.00,meteohub,2013-08-02 21:32:00,
2013-08-02 16:37:00,100.9,67.5,29.85,SW,215,3.0,12.0,34,0.00,,,0.00,meteohub,2013-08-02 21:37:00,
2013-08-02 16:42:00,101.7,68.0,29.85,South,182,4.0,12.0,34,0.00,,,0.00,meteohub,2013-08-02 21:42:00,
2013-08-02 16:47:00,101.7,67.1,29.85,SW,231,7.0,10.0,33,0.00,,,0.00,meteohub,2013-08-02 21:47:00,
2013-08-02 16:52:00,100.9,66.6,29.85,SSW,199,5.0,17.0,33,0.00,,,0.00,meteohub,2013-08-02 21:52:00,
2013-08-02 16:57:00,100.8,65.5,29.84,South,184,1.0,17.0,32,0.00,,,0.00,meteohub,2013-08-02 21:57:00,
2013-08-02 17:04:00,100.9,66.6,29.85,SW,233,5.0,17.0,33,0.00,,,0.00,meteohub,2013-08-02 22:04:00,
2013-08-02 17:11:00,100.9,66.6,29.84,South,175,3.0,11.0,33,0.00,,,0.00,meteohub,2013-08-02 22:11:00,
2013-08-02 17:16:00,100.9,66.6,29.84,SW,235,3.0,12.0,33,0.00,,,0.00,meteohub,2013-08-02 22:16:00,
2013-08-02 17:22:00,100.9,66.6,29.84,SW,215,3.0,12.0,33,0.00,,,0.00,meteohub,2013-08-02 22:22:00,
2013-08-02 17:27:00,100.9,67.5,29.84,SSW,207,7.0,12.0,34,0.00,,,0.00,meteohub,2013-08-02 22:27:00,
2013-08-02 17:32:00,100.8,67.3,29.84,SW,227,6.0,12.0,34,0.00,,,0.00,meteohub,2013-08-02 22:32:00,
2013-08-02 17:41:00,100.6,66.2,29.84,SSE,158,5.0,12.0,33,0.00,,,0.00,meteohub,2013-08-02 22:41:00,
2013-08-02 17:47:00,100.6,66.2,29.83,South,171,3.0,12.0,33,0.00,,,0.00,meteohub,2013-08-02 22:47:00,
2013-08-02 17:51:00,100.8,66.4,29.83,South,174,6.0,13.0,33,0.00,,,0.00,meteohub,2013-08-02 22:51:00,
2013-08-02 17:57:00,100.8,65.5,29.83,SSE,157,6.0,13.0,32,0.00,,,0.00,meteohub,2013-08-02 22:57:00,
2013-08-02 18:03:00,100.8,66.4,29.83,SW,220,3.0,10.0,33,0.00,,,0.00,meteohub,2013-08-02 23:03:00,
2013-08-02 18:10:00,100.6,66.2,29.83,SW,234,3.0,10.0,33,0.00,,,0.00,meteohub,2013-08-02 23:10:00,
2013-08-02 18:17:00,100.2,65.8,29.83,South,174,6.0,10.0,33,0.00,,,0.00,meteohub,2013-08-02 23:17:00,
2013-08-02 18:22:00,100.0,65.8,29.83,SSW,194,4.0,11.0,33,0.00,,,0.00,meteohub,2013-08-02 23:22:00,
2013-08-02 18:27:00,99.9,65.7,29.83,SW,232,6.0,11.0,33,0.00,,,0.00,meteohub,2013-08-02 23:27:00,
2013-08-02 18:35:00,99.9,66.4,29.83,South,169,5.0,8.0,34,0.00,,,0.00,meteohub,2013-08-02 23:35:00,
2013-08-02 18:42:00,99.9,65.7,29.83,SSE,164,5.0,9.0,33,0.00,,,0.00,meteohub,2013-08-02 23:42:00,
2013-08-02 18:47:00,99.5,65.3,29.83,SSW,210,1.0,10.0,33,0.00,,,0.00,meteohub,2013-08-02 23:47:00,
2013-08-02 18:55:00,99.7,65.5,29.84,SW,219,7.0,10.0,33,0.00,,,0.00,meteohub,2013-08-02 23:55:00,
2013-08-02 19:00:00,99.7,65.5,29.83,SSW,203,2.0,10.0,33,0.00,,,0.00,meteohub,2013-08-03 00:00:00,
2013-08-02 19:08:00,99.5,66.2,29.83,SW,218,4.0,10.0,34,0.00,,,0.00,meteohub,2013-08-03 00:08:00,
2013-08-02 19:16:00,99.1,65.8,29.84,SW,218,5.0,12.0,34,0.00,,,0.00,meteohub,2013-08-03 00:16:00,
2013-08-02 19:22:00,99.1,65.8,29.83,SW,222,5.0,11.0,34,0.00,,,0.00,meteohub,2013-08-03 00:22:00,
2013-08-02 19:26:00,99.0,65.7,29.84,SSW,207,3.0,11.0,34,0.00,,,0.00,meteohub,2013-08-03 00:26:00,
2013-08-02 19:32:00,98.8,66.4,29.83,SW,221,3.0,11.0,35,0.00,,,0.00,meteohub,2013-08-03 00:32:00,
2013-08-02 19:38:00,98.4,66.0,29.83,SSW,196,4.0,11.0,35,0.00,,,0.00,meteohub,2013-08-03 00:38:00,
2013-08-02 19:46:00,98.1,66.6,29.84,SW,225,1.0,12.0,36,0.00,,,0.00,meteohub,2013-08-03 00:46:00,
2013-08-02 19:52:00,97.9,66.4,29.84,South,181,3.0,12.0,36,0.00,,,0.00,meteohub,2013-08-03 00:52:00,
2013-08-02 20:00:00,97.3,66.7,29.84,South,179,2.0,7.0,37,0.00,,,0.00,meteohub,2013-08-03 01:00:00,
2013-08-02 20:06:00,97.2,66.6,29.84,SSE,167,1.0,7.0,37,0.00,,,0.00,meteohub,2013-08-03 01:06:00,
2013-08-02 20:12:00,97.0,66.4,29.84,SSW,203,3.0,7.0,37,0.00,,,0.00,meteohub,2013-08-03 01:12:00,
2013-08-02 20:20:00,96.4,66.7,29.84,SSW,201,1.0,6.0,38,0.00,,,0.00,meteohub,2013-08-03 01:20:00,
2013-08-02 20:26:00,96.1,67.1,29.84,SSW,200,1.0,6.0,39,0.00,,,0.00,meteohub,2013-08-03 01:26:00,
2013-08-02 20:32:00,95.7,66.7,29.84,SSW,203,1.0,6.0,39,0.00,,,0.00,meteohub,2013-08-03 01:32:00,
2013-08-02 20:37:00,95.5,66.6,29.85,South,180,1.0,5.0,39,0.00,,,0.00,meteohub,2013-08-03 01:37:00,
2013-08-02 20:43:00,94.8,67.5,29.85,South,180,1.0,4.0,41,0.00,,,0.00,meteohub,2013-08-03 01:43:00,
2013-08-02 20:51:00,94.3,66.9,29.85,SSE,163,2.0,4.0,41,0.00,,,0.00,meteohub,2013-08-03 01:51:00,
2013-08-02 20:57:00,93.7,67.1,29.85,SSE,163,3.0,5.0,42,0.00,,,0.00,meteohub,2013-08-03 01:57:00,
2013-08-02 21:03:00,93.6,67.1,29.86,SSE,163,5.0,5.0,42,0.00,,,0.00,meteohub,2013-08-03 02:03:00,
2013-08-02 21:09:00,93.2,67.5,29.86,SSE,162,1.0,5.0,43,0.00,,,0.00,meteohub,2013-08-03 02:09:00,
2013-08-02 21:16:00,93.0,67.3,29.86,SSE,163,2.0,5.0,43,0.00,,,0.00,meteohub,2013-08-03 02:16:00,
2013-08-02 21:22:00,92.8,67.1,29.86,SSE,163,1.0,5.0,43,0.00,,,0.00,meteohub,2013-08-03 02:22:00,
2013-08-02 21:27:00,92.7,67.6,29.86,SSE,164,3.0,5.0,44,0.00,,,0.00,meteohub,2013-08-03 02:27:00,
2013-08-02 21:34:00,92.5,67.5,29.86,SSE,165,3.0,5.0,44,0.00,,,0.00,meteohub,2013-08-03 02:34:00,
2013-08-02 21:40:00,92.5,67.5,29.86,South,173,2.0,6.0,44,0.00,,,0.00,meteohub,2013-08-03 02:40:00,
2013-08-02 21:53:00,92.1,67.1,29.87,SSE,168,1.0,6.0,44,0.00,,,0.00,meteohub,2013-08-03 02:53:00,
2013-08-02 22:05:00,91.8,67.5,29.87,SSE,165,1.0,6.0,45,0.00,,,0.00,meteohub,2013-08-03 03:05:00,
2013-08-02 22:11:00,91.2,67.5,29.88,SSE,153,4.0,6.0,46,0.00,,,0.00,meteohub,2013-08-03 03:11:00,
2013-08-02 22:19:00,90.9,67.3,29.88,SSE,164,3.0,6.0,46,0.00,,,0.00,meteohub,2013-08-03 03:19:00,
2013-08-02 22:26:00,90.7,67.6,29.88,SSE,159,5.0,8.0,47,0.00,,,0.00,meteohub,2013-08-03 03:26:00,
2013-08-02 22:32:00,90.5,68.2,29.88,SSE,156,6.0,8.0,48,0.00,,,0.00,meteohub,2013-08-03 03:32:00,
2013-08-02 22:37:00,90.1,67.8,29.88,SSE,158,2.0,8.0,48,0.00,,,0.00,meteohub,2013-08-03 03:37:00,
2013-08-02 22:43:00,90.0,68.2,29.88,SSE,155,2.0,8.0,49,0.00,,,0.00,meteohub,2013-08-03 03:43:00,
2013-08-02 22:50:00,89.4,68.4,29.88,South,169,6.0,8.0,50,0.00,,,0.00,meteohub,2013-08-03 03:50:00,
2013-08-02 22:56:00,89.2,68.7,29.88,South,171,5.0,10.0,51,0.00,,,0.00,meteohub,2013-08-03 03:56:00,
2013-08-02 23:05:00,89.1,69.6,29.89,SSE,155,2.0,10.0,53,0.00,,,0.00,meteohub,2013-08-03 04:05:00,
2013-08-02 23:09:00,88.9,70.2,29.89,SSE,159,8.0,10.0,54,0.00,,,0.00,meteohub,2013-08-03 04:09:00,
2013-08-02 23:10:00,88.9,70.2,29.89,South,175,8.0,9.0,54,0.00,,,0.00,meteohub,2013-08-03 04:10:00,
2013-08-02 23:12:00,88.7,70.0,29.89,SSE,153,5.0,9.0,54,0.00,,,0.00,meteohub,2013-08-03 04:12:00,
2013-08-02 23:18:00,88.5,69.8,29.89,SSE,165,4.0,11.0,54,0.00,,,0.00,meteohub,2013-08-03 04:18:00,
2013-08-02 23:24:00,88.5,70.3,29.89,SSE,161,4.0,11.0,55,0.00,,,0.00,meteohub,2013-08-03 04:24:00,
2013-08-02 23:29:00,88.3,70.2,29.89,SSE,162,5.0,11.0,55,0.00,,,0.00,meteohub,2013-08-03 04:29:00,
2013-08-02 23:35:00,88.2,70.0,29.89,SSE,157,2.0,9.0,55,0.00,,,0.00,meteohub,2013-08-03 04:35:00,
2013-08-02 23:41:00,88.0,70.3,29.89,South,171,4.0,9.0,56,0.00,,,0.00,meteohub,2013-08-03 04:41:00,
2013-08-02 23:46:00,87.6,70.0,29.89,SSE,165,3.0,9.0,56,0.00,,,0.00,meteohub,2013-08-03 04:46:00,
2013-08-02 23:52:00,87.4,70.3,29.89,SSE,163,3.0,9.0,57,0.00,,,0.00,meteohub,2013-08-03 04:52:00,
2013-08-02 23:57:00,87.3,70.2,29.89,South,169,2.0,7.0,57,0.00,,,0.00,meteohub,2013-08-03 04:57:00,